DELTA 1 DEB, 10714

Orbit data source: Space-Track

DELTA 1 DEB, 10714 is space debris in LEO originally from a launch on Thu, 29 Jul 1976 UTC launched from the Air Force Western Test Range (AFWTR). Debris objects in space refer to the collection of defunct objects orbiting the Earth. Examples of debris include non-operational satellites, rocket bodies, and fragments generated from explosions, collisions, or faulty payload assembly.

Loading next visibility...
Identifier
10714, 1976-077AK
Orbit
LEO
Country
Flag of USUS
Related business
Manufacturer
Unknown
Mission
Spacecraft
Bus & Motor
Unknown
Mass
Unknown
Launch date (UTC)
1976-07-29 (49 years ago)
Launch vehicle
Unknown
Launch site
Air Force Western Test Range (AFWTR)
Object type
Payload
Rocket body
Debris
Shape & HBR
Unknown
Radar Cross Section
Medium (>0.1 m² and <1 m²)

Expand to show TLE details & history
Last TLE update: 1 day ago

TLE from 1 day ago
0 DELTA 1 DEB
1 10714U 76077AK  25242.01540689  .00001535  00000-0  21170-1 0  9994
2 10714 103.3545 154.4776 0619397  46.2693 338.4633 11.54252075 59449
Epoch: 2025-08-30T00:22Z
TLE epoch observation values (Epoch: 2025-08-30T00:22:11.155Z)
Latitude
21.31858°
Longitude
165.18616°
Altitude
1,422.644 km
Speed
7.352 km/s
True Right ascension
09h 56m 45s
True Declination
21° 12' 44"
Sunlit
Object was in daylight at epoch
Visualization orbit readout
Latitude
Unknown
Longitude
Unknown
Altitude
Unknown
Speed
Unknown
Apparent Right ascension
Unknown
Apparent Declination
Unknown
Sunlit
N/A
Visualization observer readout
Local Sidereal Time
16:42:12
Azimuth
Unknown
Elevation
Unknown
Doppler factor
Unknown
Orbital elements
Apogee altitude
2,402.312 km
Perigee altitude
1,378.039 km
Semi-major axis
8,268.313 km
Eccentricity
0.06194
Inclination
103.3545°
RAAN
154.4776°
Arg. of periapsis
46.2693°
True anomaly
335.65734°
Mean anomaly
338.4633°
Eccentric anomaly
337.08128°
Mean motion
2.88681 °/min
Orbital period
124.71 mins
BSTAR
0.02117
Loading maneuver chart data...
Computing Atmospheric mass density...
Loading historical data...
Loading historical data...
Loading historical data...
Loading historical data...
Loading historical data...
Loading historical data...
Loading historical data...

Documentation

Showing up to 5 results
|